DW9314 Locust Valley NY US current weather conditions

sailwx.info

Wind from 087

Air temperature 24.4° C
Dewpoint -0.7° C

Last reported at 2019-Aug-20 14:01 UTC.
Time now 2019-Aug-20 14:58 UTC

Location: N 40°53' W 073°36'.
View on Google Maps.

See reports from other nearby stations

  
Tides and Currents Weather Stations Pressure Air Temp Water Temp Dewpoint Dewpoint Depression Visibility Wind Speed Wind Dir Waves Ship Positions
date/time (UTC)wind fromknots sea level pressurealtimeterstation pressurevisibilityair tempwater tempwave heightnotes
2019-Aug-20 14:01 087 24.4
2019-Aug-20 13:45 062 0 gusting 4 23.9
2019-Aug-20 13:31 337 23.3
2019-Aug-20 13:16 084 23.3
2019-Aug-20 13:01 067 0 gusting 2 22.8
2019-Aug-20 12:45 319 22.2
2019-Aug-20 12:30 041 0 gusting 3 22.2
2019-Aug-20 12:15 009 0 gusting 2 21.7
2019-Aug-20 12:00 071 21.7
2019-Aug-20 11:47 040 21.7
2019-Aug-20 11:32 040 21.1
2019-Aug-20 11:18 040 21.1
2019-Aug-20 11:01 040 21.1
2019-Aug-20 10:46 040 21.1
2019-Aug-20 10:31 040 21.1
2019-Aug-20 10:15 040 21.7
2019-Aug-20 10:00 040 21.7
2019-Aug-20 09:45 040 21.7
2019-Aug-20 09:30 040 22.2
2019-Aug-20 09:15 040 22.2
2019-Aug-20 09:00 040 22.2
2019-Aug-20 08:45 040 22.2
2019-Aug-20 08:30 348 22.2
2019-Aug-20 08:18 348 22.2
2019-Aug-20 08:01 348 22.2
2019-Aug-20 07:47 239 22.2
2019-Aug-20 07:31 239 22.2
2019-Aug-20 07:17 239 22.2
2019-Aug-20 07:01 239 22.2
2019-Aug-20 06:46 239 22.2
2019-Aug-20 06:31 239 22.2
2019-Aug-20 06:15 239 21.7
2019-Aug-20 06:00 239 21.7
2019-Aug-20 05:45 239 21.7
2019-Aug-20 05:30 239 21.7
2019-Aug-20 05:15 239 22.2
2019-Aug-20 05:00 239 22.2
2019-Aug-20 04:46 239 22.2
2019-Aug-20 04:32 239 22.2
2019-Aug-20 04:16 239 22.8
2019-Aug-20 04:01 239 22.8
2019-Aug-20 03:47 239 22.8
2019-Aug-20 03:30 239 22.8
2019-Aug-20 03:15 239 22.8
2019-Aug-20 03:01 239 22.8
2019-Aug-20 02:45 239 22.8
2019-Aug-20 02:31 239 22.8
2019-Aug-20 02:15 239 22.8
2019-Aug-20 02:00 239 22.8
2019-Aug-20 01:45 239 22.8
2019-Aug-20 01:32 239 22.8
2019-Aug-20 01:17 239 22.8
2019-Aug-20 01:02 239 22.8
2019-Aug-20 00:46 239 22.8
2019-Aug-20 00:32 239 23.3
2019-Aug-20 00:16 239 23.3
2019-Aug-20 00:01 239 23.3
2019-Aug-19 23:46 180 23.3
2019-Aug-19 23:31 180 23.9
2019-Aug-19 23:15 180 23.9
2019-Aug-19 23:00 180 23.9
2019-Aug-19 22:45 180 24.4
2019-Aug-19 22:30 195 24.4
2019-Aug-19 22:15 184 0 gusting 3 23.9
2019-Aug-19 22:02 163 0 gusting 2 23.3
2019-Aug-19 21:47 205 23.3
2019-Aug-19 21:31 192 22.8
2019-Aug-19 21:17 213 0 gusting 9 22.8
2019-Aug-19 21:02 192 0 gusting 10 23.3
2019-Aug-19 20:46 067 3 gusting 14 27.8
2019-Aug-19 20:31 329 30.6
2019-Aug-19 20:16 302 0 gusting 5 31.7
2019-Aug-19 20:01 192 0 gusting 5 33.3
2019-Aug-19 19:46 199 0 gusting 3 33.9
2019-Aug-19 19:30 254 1 gusting 6 34.4
2019-Aug-19 19:15 225 1 gusting 5 35.0
2019-Aug-19 19:01 217 35.0
2019-Aug-19 18:46 173 0 gusting 5 35.0
2019-Aug-19 18:31 215 0 gusting 3 34.4
2019-Aug-19 18:15 209 33.9
2019-Aug-19 18:00 313 33.9
2019-Aug-19 17:45 209 1 gusting 6 33.3
2019-Aug-19 17:31 270 33.3
2019-Aug-19 17:15 193 33.9
2019-Aug-19 17:00 344 33.3
2019-Aug-19 16:45 243 32.8
2019-Aug-19 16:30 246 0 gusting 6 32.2
2019-Aug-19 16:15 197 0 gusting 6 32.8
2019-Aug-19 16:02 288 32.2
2019-Aug-19 15:47 246 31.1
2019-Aug-19 15:32 015 0 gusting 5 30.6
2019-Aug-19 15:16 167 0 gusting 5 30.0
2019-Aug-19 15:02 327 0 gusting 5 28.9
2019-Aug-19 14:46 221 0 gusting 6 28.3
2019-Aug-19 14:31 290 26.7
2019-Aug-19 14:15 262 25.6
2019-Aug-19 14:01 047 25.0
2019-Aug-19 13:46 005 1 gusting 2 25.0
2019-Aug-19 13:30 343 0 gusting 4 25.0
2019-Aug-19 13:15 294 25.0
2019-Aug-19 13:00 235 1 gusting 3 24.4
2019-Aug-19 12:45 298 23.3
2019-Aug-19 12:33 298 22.8
2019-Aug-19 12:19 298 22.2
2019-Aug-19 12:02 298 21.7
2019-Aug-19 11:46 298 21.7
2019-Aug-19 11:31 298 21.1
2019-Aug-19 11:16 298 21.1
2019-Aug-19 11:01 298 21.1
2019-Aug-19 10:45 298 20.6
2019-Aug-19 10:31 298 21.1
2019-Aug-19 10:15 298 21.1
2019-Aug-19 10:00 298 20.6
2019-Aug-19 09:45 298 21.1
2019-Aug-19 09:30 298 21.1
2019-Aug-19 09:18 298 21.1
2019-Aug-19 09:01 298 21.1
2019-Aug-19 08:46 298 21.1
2019-Aug-19 08:31 298 21.1
2019-Aug-19 08:16 298 21.1
2019-Aug-19 08:01 298 20.6
2019-Aug-19 07:46 298 20.6
2019-Aug-19 07:30 298 20.6
2019-Aug-19 07:15 298 20.0
2019-Aug-19 07:01 298 20.0
2019-Aug-19 06:45 298 20.0
2019-Aug-19 06:30 298 20.0
2019-Aug-19 06:15 298 20.0
2019-Aug-19 06:00 298 20.0
2019-Aug-19 05:46 298 20.0
2019-Aug-19 05:32 298 20.0
2019-Aug-19 05:16 298 20.0
2019-Aug-19 05:02 298 20.0
2019-Aug-19 04:47 298 20.0
2019-Aug-19 04:31 298 20.0
2019-Aug-19 04:16 298 20.0
2019-Aug-19 04:00 298 20.6
2019-Aug-19 03:45 298 20.6
2019-Aug-19 03:30 298 20.6
2019-Aug-19 03:15 298 21.1
2019-Aug-19 03:00 298 21.1
2019-Aug-19 02:45 298 21.7
2019-Aug-19 02:30 298 21.7
2019-Aug-19 02:16 298 22.2
2019-Aug-19 02:02 298 22.8
2019-Aug-19 01:46 298 23.3
2019-Aug-19 01:31 298 23.3
2019-Aug-19 01:15 284 23.9
2019-Aug-19 01:02 024 24.4
2019-Aug-19 00:46 034 2 gusting 9 25.0
2019-Aug-19 00:30 315 3 gusting 8 24.4
2019-Aug-19 00:15 254 26.1
2019-Aug-19 00:00 225 26.1
2019-Aug-18 23:45 207 26.1
2019-Aug-18 23:30 207 26.1
2019-Aug-18 23:15 207 26.1
2019-Aug-18 23:00 197 26.1
2019-Aug-18 22:46 282 26.1
2019-Aug-18 22:31 174 26.7
2019-Aug-18 22:16 197 26.7
2019-Aug-18 22:01 218 27.2
2019-Aug-18 21:46 207 0 gusting 4 27.8
2019-Aug-18 21:31 108 0 gusting 4 28.9
2019-Aug-18 21:15 177 0 gusting 4 30.0
2019-Aug-18 21:01 151 30.6
2019-Aug-18 20:47 186 1 gusting 5 31.1
2019-Aug-18 20:30 192 31.7
2019-Aug-18 20:15 242 0 gusting 4 32.8
2019-Aug-18 20:00 023 33.3
2019-Aug-18 19:45 184 32.8
2019-Aug-18 19:32 147 33.9
2019-Aug-18 19:17 217 33.9
2019-Aug-18 19:01 260 35.0
2019-Aug-18 18:46 200 0 gusting 2 33.9
2019-Aug-18 18:31 225 33.9
2019-Aug-18 18:15 200 0 gusting 4 33.3
2019-Aug-18 18:01 349 32.2
2019-Aug-18 17:45 011 30.0
2019-Aug-18 17:31 022 31.1
2019-Aug-18 17:15 036 32.2
2019-Aug-18 17:00 347 0 gusting 3 32.2
2019-Aug-18 16:45 093 31.1
2019-Aug-18 16:30 028 29.4
2019-Aug-18 16:01 041 0 gusting 4 27.2
2019-Aug-18 15:46 053 2 gusting 4 27.2
2019-Aug-18 15:32 348 1 gusting 4 27.2
2019-Aug-18 15:16 229 0 gusting 3 26.7
2019-Aug-18 15:01 027 0 gusting 2 26.1
2019-Aug-18 14:46 005 25.6
2019-Aug-18 14:31 355 25.6
2019-Aug-18 14:16 005 0 gusting 2 25.0
2019-Aug-18 14:00 005 0 gusting 2 25.0